Location: Niedergestelen
(46.3129°N, 7.7822°E)
Time: 17:42:18
(UTC+00:00)

Cosmos 773 Rocket - Visible Passes

Search period start: 21 April 2021 00:00
Search period end: 01 May 2021 00:00
Orbit: 745 x 777 km, 74.1° (Epoch: 20 April)

Date Brightness Start Highest point End Pass type
(mag) Time Alt. Az. Time Alt. Az. Time Alt. Az.
21 Apr 5.9 01:26:19 10° NW 01:28:03 17° WNW 01:28:03 17° WNW visible
21 Apr 5.3 23:04:43 10° N 23:09:21 33° NE 23:09:21 33° NE visible
22 Apr 5.4 00:46:36 10° NW 00:49:27 27° WNW 00:49:27 27° WNW visible
22 Apr 5.8 22:26:02 10° N 22:30:05 22° NE 22:30:46 21° ENE visible
23 Apr 4.9 00:07:14 10° NNW 00:10:52 43° NW 00:10:52 43° NW visible
23 Apr 6.3 21:47:44 10° NNE 21:50:31 14° NE 21:52:12 12° ENE visible
23 Apr 4.6 23:28:04 10° NNW 23:32:19 56° N 23:32:19 56° N visible
24 Apr 6.3 01:11:34 10° WNW 01:12:25 12° WNW 01:12:25 12° WNW visible
24 Apr 4.8 22:49:04 10° NNW 22:53:47 45° NE 22:53:47 45° NE visible
25 Apr 5.8 00:31:27 10° NW 00:33:53 21° WNW 00:33:53 21° WNW visible
25 Apr 5.4 22:10:14 10° N 22:14:49 29° ENE 22:15:16 28° ENE visible
25 Apr 5.1 23:51:53 10° NNW 23:55:22 35° WNW 23:55:22 35° WNW visible
26 Apr 5.9 21:31:39 10° N 21:35:21 19° NE 21:36:47 17° ENE visible
26 Apr 4.5 23:12:35 10° NNW 23:16:53 58° NW 23:16:53 58° NW visible
27 Apr 6.3 20:53:38 10° NNE 20:55:43 12° NE 20:57:48 10° ENE visible
27 Apr 4.3 22:33:29 10° NNW 22:38:25 62° NE 22:38:25 62° NE visible
28 Apr 6.0 00:16:31 10° NW 00:18:31 17° WNW 00:18:31 17° WNW visible
28 Apr 4.8 21:54:32 10° N 21:59:31 38° ENE 21:59:58 38° ENE visible
28 Apr 5.4 23:36:39 10° NW 23:40:05 29° WNW 23:40:05 29° WNW visible
29 Apr 5.5 21:15:47 10° N 21:20:07 25° NE 21:21:32 22° ENE visible
29 Apr 4.6 22:57:12 10° NNW 23:01:39 50° WNW 23:01:39 50° WNW visible
30 Apr 6.1 20:37:20 10° N 20:40:35 16° NE 20:43:07 12° E visible
30 Apr 3.9 22:17:58 10° NNW 22:23:14 87° NNE 22:23:14 87° NNE visible
